Probability
84 81 87 84 74 48 0 0 0 0 0 0 0 0 0 3 16 35 45 39 39 42 45 68 74 68 58 55 61 61 58 48 52 55 58 61 68 81 77 74 71 74 74 68 74 77 71 74 68
84 84 90 81 65 10 0 0 0 0 0 0 0 0 0 3 23 35 35 32 42 29 45 42 65 68 58 42 39 35 42 42 39 42 39 42 55 61 58 65 65 68 77 68 74 71 77 61 65
77 84 87 77 39 0 0 0 3 0 0 0 0 0 3 3 10 32 39 23 29 29 29 39 45 45 32 23 29 16 16 16 26 39 26 29 42 55 58 48 58 61 65 61 61 71 68 71 71
87 90 81 61 3 0 0 0 0 0 0 0 0 3 3 10 19 19 19 10 10 19 16 26 29 35 26 23 16 19 16 13 10 16 23 19 32 39 35 48 45 48 61 52 55 58 48 52 58
100 90 65 26 0 0 0 0 0 0 0 0 0 6 6 16 13 16 16 13 10 13 16 13 29 19 16 19 16 10 13 13 6 10 16 16 19 23 23 29 39 42 39 39 42 52 52 52 58
97 100 48 3 0 0 0 0 0 0 0 0 0 10 16 13 16 13 10 13 13 13 13 10 29 19 16 6 6 6 0 0 3 6 6 13 19 23 26 23 29 35 32 35 42 45 39 45 48
97 90 16 0 3 0 0 0 0 0 0 0 0 10 16 16 13 10 10 10 6 10 6 6 6 10 13 13 6 3 3 3 3 3 3 0 6 29 29 23 26 19 23 29 39 42 35 48 48
97 87 16 3 0 0 0 0 0 0 0 0 0 0 16 16 13 13 10 10 10 6 3 6 6 3 0 0 0 0 0 0 0 0 0 3 6 10 19 19 29 29 23 29 39 39 39 48 45
90 81 13 0 3 3 0 0 0 0 0 0 0 3 16 13 10 10 10 10 6 3 3 3 0 0 0 0 0 0 0 0 0 0 3 10 0 3 10 16 19 16 23 23 19 35 42 48 35
94 55 6 6 0 3 0 0 0 0 0 0 0 3 6 6 6 3 3 3 0 0 0 0 0 0 0 0 0 3 0 3 3 0 0 0 0 0 0 10 16 6 19 23 23 26 32 32 23
74 52 26 6 0 0 0 3 3 0 0 0 0 3 3 3 3 3 3 3 0 0 0 0 0 0 0 0 0 0 0 0 0 0 0 0 0 0 0 0 6 6 10 3 3 13 10 10 3
71 52 29 3 0 0 0 0 3 3 0 0 3 3 3 3 3 3 3 3 0 0 0 0 0 0 0 0 0 0 0 0 0 0 0 0 0 0 0 3 0 3 3 3 0 0 6 6 3
55 35 23 16 3 0 3 3 6 0 0 0 3 3 3 6 6 3 3 0 0 0 0 0 0 0 0 0 0 0 0 0 0 0 0 0 0 0 0 0 0 0 3 3 3 3 3 3 0
48 42 26 13 6 0 3 3 3 6 0 0 3 3 3 6 3 3 3 0 0 0 0 0 0 0 0 0 0 0 0 0 0 0 0 0 0 0 0 0 0 0 0 0 3 3 0 3 3
42 29 13 19 13 3 0 0 0 6 3 3 3 3 3 3 3 3 0 0 0 0 0 0 0 0 0 0 0 0 0 0 0 0 0 0 0 0 0 0 0 0 0 0 0 0 0 0 3
13 16 16 16 10 6 0 0 0 3 6 10 6 6 6 3 3 3 0 0 0 0 0 0 0 0 0 0 0 0 0 0 0 0 0 0 0 0 0 0 0 0 0 0 0 0 0 0 3
6 3 0 3 10 0 0 0 6 0 0 10 10 10 6 3 3 3 0 0 0 0 0 0 0 0 0 0 0 0 0 0 0 0 0 0 0 0 0 3 0 0 0 0 0 0 0 0 0
0 0 0 0 0 0 0 0 0 0 3 3 10 10 10 6 6 3 3 0 0 0 0 0 0 0 0 0 0 0 0 0 0 0 0 0 0 0 3 3 3 0 0 0 0 0 0 0 0
0 0 0 0 0 0 0 0 0 3 3 6 6 6 6 6 6 3 3 0 0 0 0 0 0 0 0 0 0 0 0 0 0 0 0 0 0 3 0 0 0 0 0 0 0 0 3 3 0
0 0 0 0 0 0 0 0 0 0 0 3 3 3 6 6 6 3 3 0 0 0 0 0 0 0 0 0 0 0 0 0 0 0 0 0 0 0 0 0 0 0 0 6 3 3 0 0 0
0 0 0 0 0 0 0 0 0 0 0 0 3 3 3 6 6 3 3 0 0 0 0 0 0 0 0 0 0 0 0 0 0 0 0 0 0 0 0 0 0 3 3 3 3 3 0 0 0
0 0 0 0 0 0 0 0 0 0 0 0 0 3 3 3 6 3 0 0 0 0 0 0 0 0 0 0 0 0 0 0 0 0 0 0 0 0 0 0 0 3 3 3 0 0 0 0 0
0 0 0 0 0 0 0 0 0 0 0 0 0 3 3 3 6 3 0 0 0 0 0 0 0 0 0 0 0 0 0 0 0 0 0 0 0 0 0 0 0 0 3 3 3 0 0 0 0
0 0 0 0 0 0 0 0 0 0 0 0 0 0 3 3 6 6 3 0 0 0 0 0 0 0 0 0 0 0 0 0 0 0 0 0 0 0 0 0 0 0 0 3 0 3 0 3 3
0 0 0 0 0 0 0 0 0 0 0 0 0 0 0 0 6 6 3 0 0 0 0 0 0 0 0 0 0 0 0 0 0 0 0 0 0 0 0 0 0 0 0 0 0 0 0 3 0
0 0 0 0 0 0 0 0 0 0 0 0 0 0 0 0 6 6 6 3 0 0 0 0 0 0 0 0 0 0 0 0 0 0 0 0 0 0 0 0 0 0 0 0 0 0 0 0 0
0 0 0 0 0 0 0 0 0 0 0 0 0 0 0 0 6 3 3 6 0 0 0 0 0 0 0 0 0 0 0 0 0 0 0 0 0 0 0 0 0 0 0 0 0 0 0 0 0
0 0 0 0 0 0 0 0 0 0 0 0 0 0 0 0 3 3 0 3 0 0 0 0 0 0 0 0 0 0 0 0 0 0 0 0 0 0 0 0 0 0 0 0 0 0 0 0 0
0 0 0 0 0 0 0 0 0 0 0 0 0 0 0 0 0 0 0 0 0 0 0 0 0 0 0 0 0 0 0 0 0 0 0 0 0 0 0 0 0 0 0 0 0 0 0 0 0
0 0 0 0 0 0 0 0 0 0 0 0 0 0 0 0 0 0 0 0 0 0 0 0 0 0 0 0 0 0 0 0 0 0 0 0 0 0 0 0 0 0 0 0 0 0 0 0 0
Height
5873 5872 5873 5873 5873 5872 5871 5871 5871 5871 5872 5872 5871 5871 5871 5872 5872 5873 5870 5868 5867 5867 5866 5865 5864 5863 5863 5862 5861 5861 5860 5859 5859 5859 5859 5859 5859 5859 5860 5860 5861 5861 5861 5862 5862 5863 5864 5864 5865
5872 5872 5873 5873 5872 5871 5871 5870 5871 5871 5871 5870 5870 5870 5870 5870 5870 5868 5867 5866 5865 5864 5863 5862 5861 5860 5859 5858 5858 5857 5856 5855 5855 5855 5855 5854 5855 5855 5856 5856 5857 5857 5858 5859 5860 5860 5861 5862 5863
5871 5871 5872 5872 5871 5870 5870 5869 5870 5869 5869 5869 5869 5869 5869 5868 5867 5866 5864 5863 5862 5861 5860 5858 5858 5857 5856 5855 5854 5853 5852 5851 5851 5851 5850 5850 5850 5850 5851 5852 5853 5853 5854 5855 5856 5857 5858 5859 5860
5870 5871 5871 5872 5870 5869 5868 5868 5868 5868 5868 5868 5867 5867 5866 5866 5865 5863 5862 5861 5860 5859 5857 5855 5855 5853 5852 5851 5850 5849 5848 5847 5846 5846 5846 5845 5845 5846 5846 5847 5848 5848 5850 5851 5852 5853 5854 5855 5856
5868 5869 5870 5869 5868 5867 5867 5867 5867 5867 5867 5866 5866 5865 5864 5864 5862 5861 5859 5858 5857 5856 5855 5853 5852 5850 5849 5848 5846 5845 5844 5843 5842 5841 5841 5840 5840 5841 5841 5842 5843 5843 5844 5846 5847 5848 5850 5852 5853
5866 5867 5868 5867 5866 5865 5866 5866 5865 5866 5865 5865 5864 5864 5862 5862 5860 5859 5857 5856 5855 5854 5853 5851 5849 5848 5847 5845 5843 5842 5840 5839 5838 5837 5836 5835 5835 5835 5836 5836 5837 5838 5839 5841 5842 5843 5845 5847 5849
5864 5865 5865 5865 5864 5864 5865 5865 5864 5864 5864 5863 5862 5862 5861 5860 5858 5857 5856 5854 5853 5852 5850 5849 5847 5846 5844 5843 5841 5839 5838 5836 5834 5833 5832 5831 5830 5830 5830 5831 5831 5832 5834 5835 5837 5838 5840 5843 5845
5860 5863 5862 5862 5862 5862 5863 5863 5863 5863 5862 5862 5861 5859 5859 5858 5856 5855 5854 5853 5851 5850 5849 5847 5846 5844 5843 5841 5839 5837 5835 5833 5831 5830 5828 5827 5826 5825 5825 5825 5826 5826 5828 5829 5831 5833 5835 5837 5840
5856 5859 5859 5859 5859 5860 5861 5861 5862 5861 5861 5860 5859 5858 5857 5856 5855 5854 5852 5851 5850 5849 5847 5846 5844 5843 5841 5839 5837 5835 5832 5830 5828 5826 5824 5823 5822 5821 5820 5820 5820 5821 5822 5823 5825 5827 5829 5832 5835
5853 5855 5856 5856 5857 5858 5859 5859 5860 5859 5859 5858 5857 5856 5855 5854 5853 5852 5851 5850 5849 5848 5846 5845 5843 5841 5839 5837 5835 5833 5830 5828 5825 5823 5821 5819 5818 5817 5816 5815 5815 5815 5816 5817 5819 5821 5824 5826 5829
5849 5852 5853 5853 5855 5856 5857 5857 5857 5857 5857 5856 5855 5855 5854 5853 5852 5851 5850 5849 5848 5846 5845 5843 5842 5840 5838 5836 5833 5831 5828 5826 5823 5820 5818 5816 5814 5812 5811 5810 5810 5810 5810 5812 5814 5815 5818 5821 5824
5846 5849 5850 5852 5853 5854 5855 5855 5856 5855 5855 5854 5854 5853 5852 5851 5850 5849 5848 5847 5846 5845 5844 5842 5840 5839 5837 5834 5832 5829 5826 5823 5821 5818 5815 5813 5810 5808 5807 5806 5805 5805 5805 5806 5808 5810 5812 5815 5818
5842 5845 5846 5849 5850 5851 5853 5853 5853 5854 5853 5852 5852 5851 5850 5850 5849 5848 5847 5846 5845 5844 5843 5841 5839 5837 5835 5833 5830 5827 5824 5821 5818 5815 5812 5809 5807 5804 5803 5801 5800 5800 5800 5801 5803 5805 5807 5810 5813
5838 5841 5843 5845 5847 5849 5850 5851 5851 5851 5851 5850 5850 5850 5849 5848 5847 5847 5846 5845 5844 5843 5842 5840 5838 5836 5834 5831 5829 5826 5822 5819 5815 5812 5809 5806 5803 5801 5799 5798 5796 5796 5796 5796 5798 5799 5802 5805 5808
5834 5838 5840 5842 5844 5846 5848 5849 5849 5849 5849 5848 5848 5848 5847 5847 5846 5846 5845 5844 5843 5842 5841 5839 5837 5835 5833 5830 5827 5824 5821 5817 5813 5810 5806 5803 5800 5798 5796 5794 5793 5792 5792 5792 5793 5794 5797 5800 5803
5831 5835 5837 5840 5842 5843 5847 5847 5846 5846 5846 5846 5846 5846 5846 5845 5845 5845 5844 5843 5842 5841 5840 5838 5836 5834 5832 5829 5826 5823 5819 5815 5811 5808 5804 5801 5798 5795 5792 5790 5789 5788 5788 5787 5788 5789 5792 5794 5797
5829 5833 5836 5838 5839 5841 5843 5844 5844 5844 5844 5844 5844 5844 5844 5844 5844 5843 5843 5842 5841 5840 5838 5837 5835 5833 5830 5828 5825 5821 5818 5814 5810 5806 5802 5799 5795 5792 5790 5787 5785 5784 5784 5784 5784 5785 5788 5790 5793
5829 5832 5835 5836 5835 5838 5840 5842 5842 5842 5842 5842 5842 5842 5842 5842 5842 5842 5841 5840 5839 5838 5837 5836 5834 5832 5829 5826 5823 5820 5816 5812 5808 5804 5801 5797 5794 5790 5787 5785 5783 5782 5781 5781 5781 5782 5784 5786 5789
5827 5831 5832 5833 5835 5837 5838 5839 5840 5840 5840 5840 5840 5840 5840 5840 5840 5840 5840 5839 5838 5837 5836 5835 5833 5831 5828 5825 5822 5819 5815 5811 5807 5803 5799 5796 5792 5789 5786 5783 5781 5780 5779 5778 5778 5779 5781 5783 5785
5826 5829 5830 5831 5833 5835 5837 5837 5838 5837 5837 5838 5838 5838 5838 5838 5838 5838 5838 5838 5837 5836 5835 5833 5832 5829 5827 5824 5821 5817 5814 5810 5806 5802 5798 5795 5791 5788 5785 5782 5780 5778 5777 5777 5777 5777 5778 5780 5782
5825 5827 5829 5830 5832 5834 5835 5836 5837 5836 5836 5836 5837 5837 5837 5836 5836 5837 5837 5837 5836 5835 5833 5832 5830 5828 5826 5823 5820 5817 5813 5809 5805 5801 5797 5794 5790 5787 5784 5782 5779 5777 5776 5776 5775 5776 5777 5778 5780
5825 5827 5829 5830 5832 5833 5835 5835 5835 5834 5834 5834 5834 5835 5835 5835 5835 5835 5835 5835 5834 5833 5832 5831 5829 5827 5824 5822 5819 5816 5812 5809 5805 5801 5797 5793 5790 5787 5784 5781 5779 5777 5775 5775 5774 5774 5775 5776 5778
5824 5827 5829 5830 5831 5833 5833 5834 5835 5833 5833 5833 5833 5833 5833 5833 5833 5833 5833 5833 5833 5832 5831 5829 5828 5826 5823 5821 5818 5815 5811 5808 5804 5800 5797 5793 5790 5787 5784 5781 5778 5776 5775 5774 5773 5773 5774 5774 5775
5825 5827 5829 5830 5831 5832 5833 5834 5834 5832 5831 5831 5831 5831 5831 5831 5831 5832 5832 5831 5831 5830 5829 5828 5826 5824 5822 5820 5817 5814 5811 5808 5804 5800 5796 5793 5790 5787 5784 5781 5778 5776 5775 5773 5773 5772 5772 5773 5774
5826 5828 5829 5830 5831 5832 5832 5832 5833 5830 5830 5830 5829 5829 5829 5829 5830 5830 5830 5830 5829 5828 5827 5826 5825 5823 5821 5819 5816 5814 5811 5807 5804 5800 5797 5793 5790 5787 5784 5781 5779 5777 5775 5773 5772 5771 5771 5772 5772
5825 5827 5829 5829 5830 5831 5831 5831 5831 5829 5829 5828 5827 5827 5827 5827 5828 5828 5828 5828 5827 5827 5826 5825 5823 5822 5820 5818 5816 5813 5810 5807 5804 5800 5796 5793 5790 5787 5784 5782 5779 5777 5775 5773 5772 5771 5771 5771 5771
5825 5826 5828 5828 5829 5830 5831 5831 5829 5826 5826 5826 5825 5825 5825 5825 5825 5826 5826 5826 5826 5825 5824 5823 5822 5820 5819 5817 5815 5812 5809 5806 5803 5800 5796 5793 5790 5787 5784 5782 5779 5777 5775 5773 5772 5771 5770 5770 5770
5825 5826 5827 5827 5827 5828 5829 5829 5827 5824 5823 5823 5823 5822 5822 5823 5823 5823 5823 5823 5823 5823 5822 5822 5820 5819 5817 5815 5813 5811 5809 5806 5803 5800 5796 5793 5790 5787 5784 5782 5779 5777 5775 5773 5771 5770 5769 5769 5769
5824 5825 5825 5825 5825 5826 5826 5828 5824 5822 5821 5821 5820 5820 5820 5820 5820 5821 5821 5821 5821 5821 5820 5819 5819 5817 5816 5814 5812 5810 5808 5805 5802 5799 5796 5793 5790 5787 5785 5782 5779 5777 5775 5773 5771 5770 5768 5768 5767
5822 5823 5823 5823 5823 5823 5823 5825 5821 5819 5818 5817 5817 5816 5816 5817 5817 5817 5818 5818 5818 5818 5818 5817 5816 5815 5814 5813 5811 5809 5807 5804 5801 5799 5796 5793 5790 5787 5785 5782 5779 5777 5775 5773 5771 5769 5768 5766 5765
Wind_Speed
7 6 6 6 6 6 6 5 5 5 5 6 7 9 9 10 11 12 14 14 15 14 15 16 16 16 17 18 19 20 20 20 20 20 21 21 21 20 19 20 20 20 19 18 17 16 16 15 15
7 7 7 7 7 7 6 5 6 6 7 7 8 10 11 11 12 14 15 15 16 16 17 17 17 18 19 20 21 21 22 22 21 22 22 22 22 22 22 21 21 22 21 20 19 19 18 17 16
9 8 8 7 7 8 7 7 7 7 7 8 10 10 11 12 13 14 15 16 16 16 17 17 17 17 18 19 20 21 23 23 23 23 23 23 23 22 22 23 23 23 22 21 20 20 20 19 18
10 9 9 8 8 9 8 8 9 9 9 9 11 11 11 12 13 14 15 16 16 15 15 15 15 16 17 17 18 20 22 23 23 23 24 24 24 23 23 24 23 23 23 22 22 21 20 21 19
11 10 10 10 11 10 9 9 9 9 9 10 11 11 12 13 14 14 15 15 14 14 14 14 14 15 15 16 17 18 19 20 22 23 23 24 24 24 25 24 24 24 24 24 24 24 22 21 21
13 12 12 11 11 11 10 9 10 11 11 12 12 11 12 13 14 14 14 13 13 13 12 13 13 13 14 15 15 16 17 18 19 20 21 22 23 24 25 25 26 25 25 25 25 24 24 22 22
14 13 13 13 12 11 10 10 11 12 12 13 13 12 12 12 13 13 13 13 13 12 11 11 12 12 13 14 14 15 16 17 18 19 20 21 22 23 24 25 26 26 26 26 25 25 24 24 23
16 15 14 14 13 12 11 11 12 13 13 13 13 13 12 12 12 13 12 12 12 11 11 11 11 11 12 13 14 15 16 17 17 18 19 20 21 22 23 24 25 26 28 27 26 25 25 26 25
18 16 14 13 13 12 10 12 13 13 14 14 13 13 13 12 12 12 12 11 10 10 10 11 12 12 13 14 15 16 17 17 18 18 18 18 19 20 21 21 23 24 25 26 26 26 24 25 26
19 16 15 15 15 13 12 13 13 14 14 14 13 12 12 12 11 11 10 10 9 10 10 11 12 13 14 15 16 17 17 18 18 18 17 18 18 19 19 20 21 22 23 24 25 25 26 25 25
19 17 16 16 16 15 14 14 13 14 14 14 12 11 11 11 11 11 10 9 9 10 10 12 13 14 15 16 16 17 18 18 18 18 18 18 18 19 19 19 20 21 21 22 23 24 25 25 26
20 19 18 17 15 15 14 14 14 14 14 13 12 12 11 11 11 10 9 8 9 10 10 12 13 14 15 16 17 17 18 19 19 19 19 18 18 19 19 19 19 19 20 21 22 23 23 23 24
20 19 18 18 17 16 15 15 15 15 14 14 13 12 11 10 10 9 8 8 9 10 11 12 13 14 15 16 17 18 19 20 20 19 19 19 19 18 18 18 17 17 18 19 21 22 23 23 23
20 19 18 18 17 16 15 15 15 15 14 14 13 12 10 10 9 8 7 8 9 10 11 12 13 15 16 16 17 19 20 20 20 20 19 19 18 18 17 17 16 16 17 17 19 20 22 22 22
20 19 17 17 16 16 15 15 15 14 14 13 12 11 10 9 9 8 8 8 9 10 11 12 13 15 16 17 18 19 20 20 20 19 19 19 18 18 17 16 15 15 16 16 16 18 19 20 21
20 19 17 16 16 15 15 15 15 13 13 12 11 10 9 9 8 8 8 8 9 10 11 12 14 15 16 17 18 19 20 20 20 19 19 18 18 18 17 16 15 14 14 14 14 16 18 19 19
18 16 16 16 15 14 14 16 15 13 12 11 11 11 9 9 8 8 8 8 9 10 11 12 14 15 16 17 18 19 20 20 20 19 19 18 18 17 16 15 13 12 11 12 13 14 16 18 18
14 13 14 15 13 12 13 14 15 13 12 11 11 11 10 9 8 8 8 8 9 10 11 13 14 15 16 17 18 19 20 20 20 19 18 18 17 16 15 14 12 11 10 10 11 11 13 16 17
14 15 15 15 13 12 13 13 13 13 11 11 11 10 10 9 8 8 8 9 9 10 11 12 14 15 16 17 18 19 19 20 19 19 18 17 17 16 15 13 11 10 9 9 9 9 11 13 15
15 15 15 15 13 13 12 12 11 12 11 10 10 10 10 10 9 8 9 9 9 10 11 12 13 15 16 17 17 18 19 19 19 19 18 17 16 15 15 14 11 10 8 7 7 7 9 11 12
16 15 14 14 12 11 10 9 10 10 10 11 10 11 11 11 10 8 9 9 9 10 11 12 13 15 15 16 17 18 19 19 19 19 17 17 16 15 14 13 12 9 7 6 6 5 7 9 11
15 15 13 11 10 8 8 8 9 11 11 11 10 11 11 11 11 9 9 9 9 10 10 12 13 14 15 15 17 18 18 19 19 18 17 16 16 15 14 13 12 9 7 7 6 5 5 7 9
14 12 10 8 7 7 7 7 9 13 13 12 11 11 11 11 11 10 9 9 9 10 10 11 12 13 14 15 16 17 18 18 18 18 17 16 16 15 14 13 11 9 7 6 5 5 5 6 8
9 8 7 6 5 5 6 8 10 14 14 13 11 11 11 11 11 10 10 9 9 10 10 11 12 12 13 14 15 16 17 18 18 18 17 16 15 15 14 13 11 9 8 6 5 5 5 5 7
7 7 6 4 4 5 7 11 12 15 14 14 12 11 11 11 11 11 10 10 10 10 10 11 11 12 12 14 15 16 17 17 18 18 17 16 15 14 14 13 11 10 9 7 6 5 5 5 5
7 7 6 6 5 7 8 10 14 16 15 14 13 12 12 12 11 11 11 10 10 10 10 11 11 12 12 13 14 15 16 17 18 17 17 16 15 14 14 13 12 11 10 9 7 6 5 5 5
6 7 7 9 8 9 7 9 15 17 15 13 13 13 13 13 12 12 11 11 11 10 10 11 11 11 12 12 13 15 16 16 17 17 17 16 15 15 14 13 13 12 11 10 8 7 6 6 6
7 8 9 10 10 9 8 8 14 18 17 14 14 14 14 13 13 13 12 12 11 11 11 11 11 11 11 12 13 14 15 16 16 16 16 16 15 15 14 14 14 13 11 10 9 8 7 7 7
8 9 10 11 11 11 11 11 16 19 18 17 16 15 14 14 14 14 13 13 12 11 11 11 11 11 11 11 12 13 14 15 16 16 16 16 16 15 14 14 14 14 12 11 10 9 9 8 8
10 11 12 13 13 14 16 15 17 20 20 18 17 16 16 15 15 15 14 14 13 12 12 11 11 11 11 11 12 12 13 15 15 16 16 15 15 15 14 14 14 14 13 12 11 10 10 9 9
Wind_Direction
298 306 319 319 311 299 302 304 308 300 289 286 292 292 295 299 299 299 299 298 296 295 295 293 287 284 283 280 277 277 276 275 275 272 270 269 264 261 257 255 255 255 254 251 247 243 244 244 244
291 293 300 308 301 302 300 298 297 305 291 291 292 294 299 300 301 301 299 298 298 298 296 293 288 284 283 282 279 276 276 275 276 272 270 272 267 262 258 257 256 256 255 253 250 245 243 244 244
280 285 292 296 290 292 295 300 300 304 295 294 295 299 301 303 304 304 301 300 300 301 298 296 292 289 286 284 281 278 277 277 276 275 270 271 269 264 261 259 258 256 254 253 249 246 244 243 243
274 279 282 282 283 289 298 307 304 301 298 297 298 301 301 305 308 307 306 305 305 305 303 302 298 294 292 290 287 284 281 279 276 275 273 272 272 271 266 263 260 256 255 254 251 249 247 244 242
267 269 271 276 271 278 289 298 304 305 302 300 298 302 305 308 309 309 309 310 310 311 309 308 307 305 304 301 297 295 291 286 283 279 277 276 276 272 269 268 263 261 259 255 253 250 247 245 240
260 263 264 268 270 279 286 293 299 305 306 304 300 303 309 311 311 311 313 314 316 316 315 315 316 315 313 311 309 307 302 297 291 287 284 280 277 273 271 268 265 263 260 257 253 251 246 246 240
254 256 259 264 269 273 282 291 301 307 308 306 305 307 310 311 312 314 315 317 318 320 322 324 325 325 323 321 318 315 312 307 301 296 292 288 282 276 273 270 266 263 260 258 255 252 247 244 241
247 250 257 263 266 270 279 284 295 303 306 307 306 310 312 310 313 314 316 316 318 322 326 330 333 334 332 329 326 322 319 315 309 302 296 292 288 284 277 272 268 264 260 258 256 253 250 245 242
245 246 252 260 263 270 277 285 294 301 304 307 307 310 310 311 313 315 317 317 319 324 329 334 336 336 335 333 331 329 326 322 316 309 303 297 293 288 281 275 270 266 261 259 256 253 249 245 241
243 244 247 252 259 265 277 287 296 300 306 307 307 309 310 311 313 315 315 317 321 327 331 333 335 335 334 334 333 331 329 326 322 317 310 303 298 293 287 280 273 267 263 259 255 254 251 246 240
239 242 246 253 258 265 275 286 293 301 304 307 307 308 308 310 312 315 316 320 325 330 333 334 335 335 335 334 334 333 331 328 325 322 317 310 303 298 293 285 278 271 265 260 256 253 251 247 241
237 239 245 252 262 270 276 285 292 300 304 306 306 307 308 307 310 313 315 322 328 331 334 335 336 337 336 336 335 335 333 330 327 324 321 315 310 302 296 290 282 273 267 261 256 253 247 245 241
235 239 245 251 262 268 273 283 290 297 299 301 301 303 305 306 309 310 313 320 327 330 333 335 337 337 337 337 336 335 333 331 328 326 324 320 314 309 301 296 288 277 270 263 257 253 247 245 240
230 237 243 252 258 268 275 283 289 292 296 298 297 296 297 300 305 307 311 318 325 330 332 334 336 337 338 338 337 336 335 333 331 329 327 324 319 314 308 300 292 282 274 266 258 253 249 245 241
228 236 243 247 256 264 273 281 283 288 291 294 294 291 290 292 298 302 309 316 324 329 331 333 335 336 337 337 337 337 336 335 333 330 328 326 323 318 313 305 296 287 279 270 261 253 248 243 239
225 232 240 247 257 264 272 280 282 291 291 294 293 288 288 289 292 297 305 314 321 327 331 333 334 335 336 336 337 337 337 336 335 333 331 330 327 322 317 312 302 292 282 273 264 255 246 242 239
222 231 242 251 254 260 269 279 283 288 293 295 291 285 284 284 286 292 303 311 319 325 330 333 334 335 336 336 336 337 338 338 337 335 334 333 332 330 325 319 309 297 287 276 267 258 246 240 237
220 229 240 253 258 267 272 277 282 287 290 289 288 282 283 283 281 289 302 309 316 322 327 331 332 334 336 337 336 337 339 339 339 337 336 336 335 333 331 326 317 305 295 282 269 259 247 240 236
214 224 237 247 255 268 277 279 283 288 285 281 283 283 285 283 280 287 298 303 312 319 325 329 330 333 336 337 337 338 340 341 341 340 339 339 338 337 336 333 327 315 303 289 274 260 247 240 235
219 225 237 250 259 273 277 280 289 292 290 287 287 284 284 281 277 283 291 298 307 315 322 326 329 332 335 337 339 340 341 342 343 343 342 341 340 340 340 338 333 327 316 303 285 259 245 238 235
222 232 242 253 266 274 278 281 289 288 287 288 285 282 281 279 276 276 286 294 304 312 319 324 329 332 335 337 339 341 343 344 345 345 344 343 343 343 343 343 340 336 328 315 299 274 248 240 236
227 233 245 256 269 275 291 296 295 296 294 291 283 279 277 276 274 276 283 292 302 310 317 324 328 332 335 337 340 343 344 345 346 346 345 345 346 346 346 346 346 342 333 322 307 285 264 248 241
228 235 246 260 279 290 302 307 303 296 296 294 287 280 273 270 270 272 280 291 300 308 315 321 327 331 335 339 342 344 346 347 348 348 348 348 349 349 349 349 350 350 342 329 312 293 281 259 245
232 237 248 265 293 317 317 306 296 288 295 298 288 279 271 268 267 268 276 287 297 306 314 319 325 330 335 340 343 344 346 348 350 350 350 351 351 352 353 354 354 354 351 339 319 306 293 277 256
233 242 251 275 301 313 306 302 291 288 297 296 289 280 273 268 265 267 274 283 293 303 311 317 322 327 333 339 342 344 346 348 350 350 351 352 353 354 356 357 355 353 353 348 333 320 308 289 272
235 246 260 285 299 303 307 308 298 297 296 292 286 281 275 269 265 267 271 279 288 298 307 313 318 324 330 335 339 342 345 348 350 352 353 353 353 354 355 357 356 352 350 348 344 334 323 304 286
244 250 256 274 287 294 301 296 295 297 296 291 285 279 272 268 266 266 270 276 284 293 301 309 314 321 327 332 337 341 344 347 350 353 355 355 355 354 354 355 355 355 354 350 345 341 330 317 298
263 260 258 270 278 284 293 291 284 292 300 294 287 281 273 267 265 266 270 273 280 288 294 303 310 317 325 330 335 340 343 346 349 352 354 355 357 357 356 355 356 356 354 352 348 341 333 318 304
277 275 273 275 281 282 282 276 281 290 294 291 287 282 275 269 266 266 269 271 276 282 288 296 304 311 319 326 332 338 342 345 347 349 351 354 355 355 356 356 357 357 354 351 348 345 340 329 315
288 283 279 278 277 276 281 288 288 292 292 288 284 281 275 269 266 265 267 268 272 277 283 290 298 304 311 319 326 333 338 342 345 347 349 351 353 353 353 353 355 356 356 352 347 344 341 334 323